Freeport, Bahamas

7:51 AM EDT on June 26, 2017 (GMT -0400)
Grand Bahama International

Weather History for MYGF - March, 2014

Change the Weather History Date:

Thursday, March 20, 2014

  Actual Average Record
Temperature  
Mean Temperature 72 °F -  
Max Temperature 82 °F 77 °F 84 °F (2003)
Min Temperature 62 °F 66 °F 57 °F (2005)
Cooling Degree Days 7    
Growing Degree Days 22 (Base 50)    
Moisture  
Dew Point 67 °F    
Average Humidity 73    
Maximum Humidity 100    
Minimum Humidity 48    
Precipitation  
Precipitation 0.00 in - - ()
Sea Level Pressure  
Sea Level Pressure 30.00 in    
Wind  
Wind Speed 3 mph ()    
Max Wind Speed 10 mph    
Max Gust Speed -    
Visibility 7.6 miles    
Events Fog    
Averages and records for this station are not official NWS values.
T = Trace of Precipitation, MM = Missing Value Source: Averaged Metar Reports

Daily Weather History Graph

Daily Weather History Graph

Search for Another Location

Airport or City:

Trip Planner

Search our weather history database for the weather conditions in past years. The results will help you decide how hot, cold, wet, or windy it might be!

Date:

Astronomy

Mar. 20, 2014 Rise Set
Actual Time 7:18 AM EDT 7:26 PM EDT
Civil Twilight 6:55 AM EDT 7:49 PM EDT
Nautical Twilight 6:28 AM EDT 8:16 PM EDT
Astronomical Twilight 6:01 AM EDT 8:43 PM EDT
Moon 11:20 PM EDT (3/20) 9:45 AM EDT (3/20)
Length of Visible Light 12h 53m
Length of Day
12h 07m
Waning Gibbous, 84% of the Moon is Illuminated
Mar 20
Waning Gibbous
Mar 23
Last Quarter
Mar 30
New
Apr 7
First Quarter
Apr 15
Full

Hourly Weather History & Observations

Time (EDT) Temp. Heat Index Dew Point Humidity Pressure Visibility Wind Dir Wind Speed Gust Speed Precip Events Conditions
7:00 AM 64.4 °F - 62.6 °F 94% 30.01 in - Calm Calm - N/A   Clear
8:00 AM 64 °F - 64 °F 100% 30.02 in 8 mi Calm Calm - - Fog Patches of Fog
8:00 AM 64.4 °F - 64.4 °F 100% 30.02 in 6.2 mi Calm Calm - N/A   Partly Cloudy
9:00 AM 77.0 °F - 68.0 °F 74% 30.04 in 6.2 mi SE 3.5 mph - N/A   Partly Cloudy
10:00 AM 78.8 °F - 68.0 °F 69% 30.04 in 6.2 mi Calm Calm - N/A   Partly Cloudy
11:00 AM 78 °F - 66 °F 59% 30.05 in 12 mi NNE 5.8 mph - -  
11:00 AM 78.8 °F - 66.2 °F 65% 30.05 in 6.2 mi NNE 5.8 mph - N/A   Scattered Clouds
12:00 PM 78.8 °F - 66.2 °F 65% 30.04 in 6.2 mi NE 10.4 mph - N/A   Scattered Clouds
1:00 PM 80.6 °F 88.1 °F 78.8 °F 94% 30.03 in 6.2 mi NNE 5.8 mph - N/A   Partly Cloudy
2:00 PM 81 °F - 65 °F 48% 29.99 in 12 mi NNE 6.9 mph - -   Scattered Clouds
2:00 PM 80.6 °F 82.3 °F 64.4 °F 58% 29.99 in 6.2 mi NNE 6.9 mph - N/A   Partly Cloudy
3:00 PM 78.8 °F - 64.4 °F 61% 29.98 in 6.2 mi North 6.9 mph - N/A   Mostly Cloudy
4:00 PM 78.8 °F - 66.2 °F 65% 29.97 in 6.2 mi North 8.1 mph - N/A   Mostly Cloudy
5:00 PM 79 °F - 66 °F 55% 29.96 in 12 mi NNE 9.2 mph - -   Mostly Cloudy
5:00 PM 78.8 °F - 66.2 °F 65% 29.96 in 6.2 mi NNE 9.2 mph - N/A   Mostly Cloudy
6:00 PM 77.0 °F - 69.8 °F 78% 29.96 in 6.2 mi South 4.6 mph - N/A   Mostly Cloudy
7:00 PM 75.2 °F - 68.0 °F 78% 29.97 in 6.2 mi SSE 3.5 mph - N/A   Mostly Cloudy
8:00 PM 75 °F - 68 °F 72% 29.98 in 12 mi ESE 3.5 mph - -   Partly Cloudy
8:00 PM 75.2 °F - 68.0 °F 78% 29.98 in 6.2 mi ESE 3.5 mph - N/A   Scattered Clouds